Time,TemperatureF,DewpointF,PressureIn,WindDirection,WindDirectionDegrees,WindSpeedMPH,WindSpeedGustMPH,Humidity,HourlyPrecipIn,Conditions,Clouds,dailyrainin,SoftwareType,DateUTC
2013-09-08 00:04:00,69.3,39.0,30.26,NE,45,0.0,3.0,33,-99.99,,,0.00,meteohub,2013-09-07 21:04:00,
2013-09-08 00:10:00,69.3,39.0,30.26,NE,45,0.0,4.0,33,-99.99,,,0.00,meteohub,2013-09-07 21:10:00,
2013-09-08 00:16:00,69.3,39.0,30.26,NE,45,0.0,4.0,33,-99.99,,,0.00,meteohub,2013-09-07 21:16:00,
2013-09-08 00:22:00,69.1,38.8,30.26,NE,45,0.0,2.0,33,-99.99,,,0.00,meteohub,2013-09-07 21:22:00,
2013-09-08 00:27:00,69.1,38.8,30.26,NE,45,1.0,2.0,33,-99.99,,,0.00,meteohub,2013-09-07 21:27:00,
2013-09-08 00:33:00,69.1,38.8,30.26,NE,45,0.0,2.0,33,-99.99,,,0.00,meteohub,2013-09-07 21:33:00,
2013-09-08 00:39:00,68.9,38.8,30.26,NE,45,0.0,2.0,33,-99.99,,,0.00,meteohub,2013-09-07 21:39:00,
2013-09-08 00:45:00,68.9,38.8,30.26,NE,45,0.0,1.0,33,-99.99,,,0.00,meteohub,2013-09-07 21:45:00,
2013-09-08 00:51:00,68.7,39.4,30.26,NE,45,1.0,2.0,34,-99.99,,,0.00,meteohub,2013-09-07 21:51:00,
2013-09-08 00:57:00,68.7,39.4,30.26,NE,45,1.0,2.0,34,-99.99,,,0.00,meteohub,2013-09-07 21:57:00,
2013-09-08 01:03:00,68.5,39.2,30.26,NE,45,1.0,2.0,34,-99.99,,,0.00,meteohub,2013-09-07 22:03:00,
2013-09-08 01:09:00,68.4,39.0,30.29,NE,45,2.0,3.0,34,-99.99,,,0.00,meteohub,2013-09-07 22:09:00,
2013-09-08 01:15:00,68.4,39.0,30.29,NE,45,1.0,3.0,34,-99.99,,,0.00,meteohub,2013-09-07 22:15:00,
2013-09-08 01:21:00,68.4,39.0,30.29,NE,45,1.0,3.0,34,-99.99,,,0.00,meteohub,2013-09-07 22:21:00,
2013-09-08 01:27:00,68.2,38.8,30.29,NE,45,0.0,2.0,34,-99.99,,,0.00,meteohub,2013-09-07 22:27:00,
2013-09-08 01:34:00,68.2,38.8,30.29,NE,45,0.0,3.0,34,-99.99,,,0.00,meteohub,2013-09-07 22:34:00,
2013-09-08 01:40:00,68.2,38.8,30.26,NE,45,1.0,3.0,34,-99.99,,,0.00,meteohub,2013-09-07 22:40:00,
2013-09-08 01:46:00,68.0,38.7,30.26,NE,45,2.0,4.0,34,-99.99,,,0.00,meteohub,2013-09-07 22:46:00,
2013-09-08 01:52:00,68.0,38.7,30.26,NE,45,1.0,4.0,34,-99.99,,,0.00,meteohub,2013-09-07 22:52:00,
2013-09-08 01:58:00,68.0,38.7,30.29,NE,45,1.0,4.0,34,-99.99,,,0.00,meteohub,2013-09-07 22:58:00,
2013-09-08 02:04:00,68.0,38.7,30.29,NE,45,2.0,3.0,34,-99.99,,,0.00,meteohub,2013-09-07 23:04:00,
2013-09-08 02:10:00,68.0,37.9,30.29,NE,45,1.0,4.0,33,-99.99,,,0.00,meteohub,2013-09-07 23:10:00,
2013-09-08 02:16:00,68.0,38.7,30.29,NE,45,3.0,4.0,34,-99.99,,,0.00,meteohub,2013-09-07 23:16:00,
2013-09-08 02:22:00,67.8,38.7,30.29,NE,45,1.0,3.0,34,-99.99,,,0.00,meteohub,2013-09-07 23:22:00,
2013-09-08 02:27:00,67.8,38.7,30.29,NE,45,1.0,3.0,34,-99.99,,,0.00,meteohub,2013-09-07 23:27:00,
2013-09-08 02:33:00,67.8,38.7,30.29,NE,45,0.0,3.0,34,-99.99,,,0.00,meteohub,2013-09-07 23:33:00,
2013-09-08 02:39:00,67.6,38.5,30.29,NE,45,0.0,3.0,34,-99.99,,,0.00,meteohub,2013-09-07 23:39:00,
2013-09-08 02:45:00,67.6,38.5,30.29,NE,45,0.0,3.0,34,-99.99,,,0.00,meteohub,2013-09-07 23:45:00,
2013-09-08 02:51:00,67.6,38.5,30.29,NE,45,0.0,3.0,34,-99.99,,,0.00,meteohub,2013-09-07 23:51:00,
2013-09-08 02:57:00,67.6,38.5,30.29,NE,45,1.0,3.0,34,-99.99,,,0.00,meteohub,2013-09-07 23:57:00,
2013-09-08 03:03:00,67.6,38.5,30.29,NE,45,1.0,2.0,34,-99.99,,,0.00,meteohub,2013-09-08 00:03:00,
2013-09-08 03:09:00,67.5,39.0,30.29,NE,45,0.0,2.0,35,-99.99,,,0.00,meteohub,2013-09-08 00:09:00,
2013-09-08 03:16:00,67.5,39.0,30.26,NE,45,1.0,2.0,35,-99.99,,,0.00,meteohub,2013-09-08 00:16:00,
2013-09-08 03:22:00,67.5,39.0,30.26,NE,45,0.0,2.0,35,-99.99,,,0.00,meteohub,2013-09-08 00:22:00,
2013-09-08 03:28:00,67.5,39.0,30.29,NE,45,0.0,2.0,35,-99.99,,,0.00,meteohub,2013-09-08 00:28:00,
2013-09-08 03:34:00,67.5,39.0,30.29,NE,45,0.0,2.0,35,-99.99,,,0.00,meteohub,2013-09-08 00:34:00,
2013-09-08 03:40:00,67.3,38.8,30.26,NE,45,0.0,2.0,35,-99.99,,,0.00,meteohub,2013-09-08 00:40:00,
2013-09-08 03:46:00,67.3,38.8,30.26,NE,45,0.0,2.0,35,-99.99,,,0.00,meteohub,2013-09-08 00:46:00,
2013-09-08 03:52:00,67.3,38.8,30.26,NE,45,0.0,2.0,35,-99.99,,,0.00,meteohub,2013-09-08 00:52:00,
2013-09-08 03:57:00,67.3,38.8,30.26,NE,45,0.0,2.0,35,-99.99,,,0.00,meteohub,2013-09-08 00:57:00,
2013-09-08 04:03:00,67.3,38.8,30.26,NE,45,0.0,2.0,35,-99.99,,,0.00,meteohub,2013-09-08 01:03:00,
2013-09-08 04:09:00,67.3,39.6,30.26,NE,45,0.0,2.0,36,-99.99,,,0.00,meteohub,2013-09-08 01:09:00,
2013-09-08 04:15:00,67.3,39.6,30.26,NE,45,0.0,2.0,36,-99.99,,,0.00,meteohub,2013-09-08 01:15:00,
2013-09-08 04:21:00,67.3,39.6,30.26,NE,45,0.0,2.0,36,-99.99,,,0.00,meteohub,2013-09-08 01:21:00,
2013-09-08 04:27:00,67.3,39.6,30.26,NE,45,0.0,2.0,36,-99.99,,,0.00,meteohub,2013-09-08 01:27:00,
2013-09-08 04:33:00,67.3,39.6,30.26,NE,45,0.0,1.0,36,-99.99,,,0.00,meteohub,2013-09-08 01:33:00,
2013-09-08 04:39:00,67.3,39.6,30.26,NE,45,0.0,1.0,36,-99.99,,,0.00,meteohub,2013-09-08 01:39:00,
2013-09-08 04:45:00,67.3,39.6,30.26,NE,45,0.0,2.0,36,-99.99,,,0.00,meteohub,2013-09-08 01:45:00,
2013-09-08 04:51:00,67.3,39.6,30.26,NE,45,1.0,2.0,36,-99.99,,,0.00,meteohub,2013-09-08 01:51:00,
2013-09-08 04:57:00,67.1,39.4,30.29,NE,45,0.0,2.0,36,-99.99,,,0.00,meteohub,2013-09-08 01:57:00,
2013-09-08 05:03:00,67.1,39.4,30.29,NE,45,0.0,2.0,36,-99.99,,,0.00,meteohub,2013-09-08 02:03:00,
2013-09-08 05:09:00,67.1,39.4,30.29,NE,45,0.0,2.0,36,-99.99,,,0.00,meteohub,2013-09-08 02:09:00,
2013-09-08 05:15:00,67.1,39.4,30.29,NE,45,0.0,1.0,36,-99.99,,,0.00,meteohub,2013-09-08 02:15:00,
2013-09-08 05:21:00,67.1,39.4,30.29,NE,45,0.0,1.0,36,-99.99,,,0.00,meteohub,2013-09-08 02:21:00,
2013-09-08 05:28:00,67.1,39.4,30.29,NE,45,0.0,2.0,36,-99.99,,,0.00,meteohub,2013-09-08 02:28:00,
2013-09-08 05:34:00,67.1,39.4,30.29,NE,45,0.0,2.0,36,-99.99,,,0.00,meteohub,2013-09-08 02:34:00,
2013-09-08 05:40:00,67.1,40.1,30.29,NE,45,0.0,1.0,37,-99.99,,,0.00,meteohub,2013-09-08 02:40:00,
2013-09-08 05:46:00,66.9,39.9,30.29,NE,45,0.0,1.0,37,-99.99,,,0.00,meteohub,2013-09-08 02:46:00,
2013-09-08 05:52:00,66.9,39.9,30.29,NE,45,1.0,1.0,37,-99.99,,,0.00,meteohub,2013-09-08 02:52:00,
2013-09-08 05:58:00,66.9,39.9,30.29,NE,45,0.0,1.0,37,-99.99,,,0.00,meteohub,2013-09-08 02:58:00,
2013-09-08 06:04:00,67.1,40.1,30.29,NE,45,2.0,2.0,37,-99.99,,,0.00,meteohub,2013-09-08 03:04:00,
2013-09-08 06:10:00,66.9,39.9,30.26,NE,45,2.0,2.0,37,-99.99,,,0.00,meteohub,2013-09-08 03:10:00,
2013-09-08 06:16:00,66.9,39.9,30.26,NE,45,1.0,3.0,37,-99.99,,,0.00,meteohub,2013-09-08 03:16:00,
2013-09-08 06:22:00,66.9,39.9,30.26,NE,45,1.0,3.0,37,-99.99,,,0.00,meteohub,2013-09-08 03:22:00,
2013-09-08 06:27:00,66.9,39.9,30.29,NE,45,1.0,3.0,37,-99.99,,,0.00,meteohub,2013-09-08 03:27:00,
2013-09-08 06:33:00,66.9,39.9,30.29,NE,45,1.0,2.0,37,-99.99,,,0.00,meteohub,2013-09-08 03:33:00,
2013-09-08 06:39:00,66.9,40.6,30.29,NE,45,2.0,2.0,38,-99.99,,,0.00,meteohub,2013-09-08 03:39:00,
2013-09-08 06:45:00,66.9,39.9,30.29,NE,45,2.0,2.0,37,-99.99,,,0.00,meteohub,2013-09-08 03:45:00,
2013-09-08 06:51:00,66.9,39.9,30.29,NE,45,0.0,2.0,37,-99.99,,,0.00,meteohub,2013-09-08 03:51:00,
2013-09-08 06:57:00,66.9,40.6,30.29,NE,45,0.0,2.0,38,-99.99,,,0.00,meteohub,2013-09-08 03:57:00,
2013-09-08 07:02:00,67.1,40.8,30.29,NE,45,0.0,2.0,38,-99.99,,,0.00,meteohub,2013-09-08 04:02:00,
2013-09-08 07:08:00,67.1,40.8,30.29,NE,45,1.0,1.0,38,-99.99,,,0.00,meteohub,2013-09-08 04:08:00,
2013-09-08 07:11:00,67.1,40.8,30.29,NE,45,0.0,1.0,38,-99.99,,,0.00,meteohub,2013-09-08 04:11:00,
2013-09-08 07:12:00,67.1,40.8,30.29,NE,45,1.0,1.0,38,-99.99,,,0.00,meteohub,2013-09-08 04:12:00,
2013-09-08 07:17:00,67.1,40.8,30.29,NE,45,0.0,3.0,38,-99.99,,,0.00,meteohub,2013-09-08 04:17:00,
2013-09-08 07:22:00,67.1,40.8,30.29,NE,45,2.0,3.0,38,-99.99,,,0.00,meteohub,2013-09-08 04:22:00,
2013-09-08 07:27:00,67.1,40.8,30.32,NE,45,1.0,3.0,38,-99.99,,,0.00,meteohub,2013-09-08 04:27:00,
2013-09-08 07:32:00,67.3,41.0,30.32,NE,45,0.0,3.0,38,-99.99,,,0.00,meteohub,2013-09-08 04:32:00,
2013-09-08 07:38:00,67.3,41.0,30.32,NE,45,0.0,3.0,38,-99.99,,,0.00,meteohub,2013-09-08 04:38:00,
2013-09-08 07:44:00,67.1,40.8,30.32,North,0,0.0,3.0,38,-99.99,,,0.00,meteohub,2013-09-08 04:44:00,
2013-09-08 07:50:00,67.1,40.8,30.32,NE,45,0.0,0.0,38,-99.99,,,0.00,meteohub,2013-09-08 04:50:00,
2013-09-08 07:56:00,66.9,41.4,30.32,NE,45,0.0,0.0,39,-99.99,,,0.00,meteohub,2013-09-08 04:56:00,
2013-09-08 08:02:00,67.1,41.5,30.32,NE,45,0.0,0.0,39,-99.99,,,0.00,meteohub,2013-09-08 05:02:00,
2013-09-08 08:07:00,67.1,42.1,30.32,NE,45,0.0,0.0,40,-99.99,,,0.00,meteohub,2013-09-08 05:07:00,
2013-09-08 08:13:00,67.1,42.1,30.32,NE,45,0.0,0.0,40,-99.99,,,0.00,meteohub,2013-09-08 05:13:00,
2013-09-08 08:19:00,67.3,42.3,30.32,NE,45,0.0,0.0,40,-99.99,,,0.00,meteohub,2013-09-08 05:19:00,
2013-09-08 08:25:00,67.5,42.4,30.32,East,90,0.0,0.0,40,-99.99,,,0.00,meteohub,2013-09-08 05:25:00,
2013-09-08 08:31:00,67.6,43.3,30.32,SW,225,1.0,0.0,41,-99.99,,,0.00,meteohub,2013-09-08 05:31:00,
2013-09-08 08:37:00,67.8,42.8,30.32,SW,225,0.0,2.0,40,-99.99,,,0.00,meteohub,2013-09-08 05:37:00,
2013-09-08 08:43:00,68.2,43.2,30.32,SW,225,0.0,2.0,40,-99.99,,,0.00,meteohub,2013-09-08 05:43:00,
2013-09-08 08:49:00,69.1,43.9,30.32,SW,225,0.0,2.0,40,-99.99,,,0.00,meteohub,2013-09-08 05:49:00,
2013-09-08 08:55:00,70.3,45.0,30.32,SW,225,0.0,1.0,40,0.00,,,0.00,meteohub,2013-09-08 05:55:00,
2013-09-08 09:01:00,71.8,45.7,30.32,SW,225,2.0,2.0,39,0.00,,,0.00,meteohub,2013-09-08 06:01:00,
2013-09-08 09:11:00,73.9,44.8,30.32,West,270,2.0,2.0,35,0.00,,,0.00,meteohub,2013-09-08 06:11:00,
2013-09-08 09:17:00,75.4,44.4,30.32,NNW,338,0.0,2.0,33,0.00,,,0.00,meteohub,2013-09-08 06:17:00,
2013-09-08 09:23:00,76.3,44.4,30.32,NE,45,0.0,2.0,32,0.00,,,0.00,meteohub,2013-09-08 06:23:00,
2013-09-08 09:29:00,77.4,44.6,30.32,WSW,248,0.0,2.0,31,0.00,,,0.00,meteohub,2013-09-08 06:29:00,
2013-09-08 09:35:00,78.1,43.3,30.32,South,180,1.0,4.0,29,0.00,,,0.00,meteohub,2013-09-08 06:35:00,
2013-09-08 09:42:00,78.3,41.7,30.32,North,0,0.0,4.0,27,0.00,,,0.00,meteohub,2013-09-08 06:42:00,
2013-09-08 09:48:00,78.6,41.0,30.32,SW,225,2.0,4.0,26,0.00,,,0.00,meteohub,2013-09-08 06:48:00,
2013-09-08 09:54:00,78.6,39.9,30.32,South,180,2.0,4.0,25,-99.99,,,0.00,meteohub,2013-09-08 06:54:00,
2013-09-08 10:00:00,78.3,40.6,30.32,NE,45,1.0,5.0,26,-99.99,,,0.00,meteohub,2013-09-08 07:00:00,
2013-09-08 10:06:00,78.3,40.6,30.32,North,0,3.0,5.0,26,-99.99,,,0.00,meteohub,2013-09-08 07:06:00,
2013-09-08 10:12:00,77.4,37.9,30.32,North,0,1.0,3.0,24,-99.99,,,0.00,meteohub,2013-09-08 07:12:00,
2013-09-08 10:18:00,77.0,38.7,30.32,SSW,202,0.0,4.0,25,-99.99,,,0.00,meteohub,2013-09-08 07:18:00,
2013-09-08 10:24:00,76.3,37.9,30.32,North,0,2.0,4.0,25,-99.99,,,0.00,meteohub,2013-09-08 07:24:00,
2013-09-08 10:30:00,75.2,38.1,30.32,North,0,1.0,5.0,26,-99.99,,,0.00,meteohub,2013-09-08 07:30:00,
2013-09-08 10:36:00,74.8,38.8,30.32,NE,45,2.0,5.0,27,-99.99,,,0.00,meteohub,2013-09-08 07:36:00,
2013-09-08 10:42:00,74.7,38.7,30.35,NNW,338,2.0,3.0,27,-99.99,,,0.00,meteohub,2013-09-08 07:42:00,
2013-09-08 10:47:00,74.7,37.6,30.35,NE,45,2.0,5.0,26,-99.99,,,0.00,meteohub,2013-09-08 07:47:00,
2013-09-08 10:53:00,74.7,36.7,30.35,North,0,0.0,5.0,25,-99.99,,,0.00,meteohub,2013-09-08 07:53:00,
2013-09-08 10:59:00,74.7,36.7,30.32,North,0,3.0,5.0,25,-99.99,,,0.00,meteohub,2013-09-08 07:59:00,
2013-09-08 11:05:00,74.5,36.5,30.32,NE,45,6.0,6.0,25,-99.99,,,0.00,meteohub,2013-09-08 08:05:00,
2013-09-08 11:11:00,74.5,36.5,30.32,South,180,3.0,6.0,25,-99.99,,,0.00,meteohub,2013-09-08 08:11:00,
2013-09-08 11:17:00,74.5,37.6,30.32,SE,135,3.0,6.0,26,-99.99,,,0.00,meteohub,2013-09-08 08:17:00,
2013-09-08 11:23:00,74.7,37.6,30.32,NE,45,4.0,6.0,26,-99.99,,,0.00,meteohub,2013-09-08 08:23:00,
2013-09-08 11:29:00,74.5,36.5,30.35,NE,45,1.0,6.0,25,-99.99,,,0.00,meteohub,2013-09-08 08:29:00,
2013-09-08 11:35:00,74.7,36.7,30.35,SE,135,0.0,6.0,25,-99.99,,,0.00,meteohub,2013-09-08 08:35:00,
2013-09-08 11:41:00,74.7,36.7,30.32,North,0,2.0,6.0,25,-99.99,,,0.00,meteohub,2013-09-08 08:41:00,
2013-09-08 11:47:00,74.5,36.5,30.32,West,270,1.0,5.0,25,-99.99,,,0.00,meteohub,2013-09-08 08:47:00,
2013-09-08 11:53:00,74.5,34.3,30.32,North,0,4.0,6.0,23,-99.99,,,0.00,meteohub,2013-09-08 08:53:00,
2013-09-08 12:00:00,74.5,35.4,30.32,West,270,2.0,7.0,24,0.00,,,0.00,meteohub,2013-09-08 09:00:00,
2013-09-08 12:06:00,74.7,34.5,30.32,South,180,5.0,7.0,23,0.00,,,0.00,meteohub,2013-09-08 09:06:00,
2013-09-08 12:12:00,74.3,34.3,30.32,NNE,22,2.0,8.0,23,0.00,,,0.00,meteohub,2013-09-08 09:12:00,
2013-09-08 12:18:00,74.5,33.3,30.32,NE,45,1.0,8.0,22,0.00,,,0.00,meteohub,2013-09-08 09:18:00,
2013-09-08 12:24:00,74.3,33.1,30.32,NE,45,3.0,10.0,22,0.00,,,0.00,meteohub,2013-09-08 09:24:00,
2013-09-08 12:30:00,74.5,35.4,30.32,SW,225,4.0,10.0,24,0.00,,,0.00,meteohub,2013-09-08 09:30:00,
2013-09-08 12:36:00,74.3,35.2,30.32,NNW,338,3.0,10.0,24,0.00,,,0.00,meteohub,2013-09-08 09:36:00,
2013-09-08 12:42:00,74.3,36.3,30.32,East,90,1.0,10.0,25,0.00,,,0.00,meteohub,2013-09-08 09:42:00,
2013-09-08 12:48:00,74.5,35.4,30.32,NE,45,1.0,10.0,24,0.00,,,0.00,meteohub,2013-09-08 09:48:00,
2013-09-08 12:54:00,74.8,36.9,30.32,South,180,0.0,10.0,25,0.00,,,0.00,meteohub,2013-09-08 09:54:00,
2013-09-08 13:00:00,75.2,41.0,30.32,North,0,3.0,8.0,29,0.00,,,0.00,meteohub,2013-09-08 10:00:00,
2013-09-08 13:06:00,75.2,42.6,30.32,East,90,2.0,7.0,31,0.00,,,0.00,meteohub,2013-09-08 10:06:00,
2013-09-08 13:12:00,74.7,43.0,30.32,SSW,202,0.0,10.0,32,0.00,,,0.00,meteohub,2013-09-08 10:12:00,
2013-09-08 13:17:00,74.8,43.2,30.32,North,0,0.0,10.0,32,0.00,,,0.00,meteohub,2013-09-08 10:17:00,
2013-09-08 13:23:00,74.7,42.3,30.32,North,0,4.0,10.0,31,0.00,,,0.00,meteohub,2013-09-08 10:23:00,
2013-09-08 13:29:00,74.5,42.8,30.32,North,0,1.0,10.0,32,0.00,,,0.00,meteohub,2013-09-08 10:29:00,
2013-09-08 13:35:00,74.3,42.6,30.32,North,0,3.0,10.0,32,0.00,,,0.00,meteohub,2013-09-08 10:35:00,
2013-09-08 13:41:00,74.3,42.6,30.32,North,0,3.0,4.0,32,0.00,,,0.00,meteohub,2013-09-08 10:41:00,
2013-09-08 13:47:00,74.1,42.6,30.32,North,0,1.0,6.0,32,0.00,,,0.00,meteohub,2013-09-08 10:47:00,
2013-09-08 13:53:00,74.1,42.6,30.32,North,0,0.0,6.0,32,0.00,,,0.00,meteohub,2013-09-08 10:53:00,
2013-09-08 13:59:00,73.9,42.4,30.32,NE,45,6.0,6.0,32,0.00,,,0.00,meteohub,2013-09-08 10:59:00,
2013-09-08 14:05:00,73.6,42.1,30.32,East,90,3.0,6.0,32,0.00,,,0.00,meteohub,2013-09-08 11:05:00,
2013-09-08 14:11:00,73.2,43.3,30.32,NE,45,0.0,6.0,34,0.00,,,0.00,meteohub,2013-09-08 11:11:00,
2013-09-08 14:17:00,73.2,44.8,30.32,North,0,1.0,6.0,36,0.00,,,0.00,meteohub,2013-09-08 11:17:00,
2013-09-08 14:24:00,73.0,43.2,30.32,North,0,0.0,6.0,34,0.00,,,0.00,meteohub,2013-09-08 11:24:00,
2013-09-08 14:30:00,73.0,43.2,30.32,NE,45,2.0,6.0,34,0.00,,,0.00,meteohub,2013-09-08 11:30:00,
2013-09-08 14:36:00,72.5,45.0,30.32,NE,45,3.0,6.0,37,0.00,,,0.00,meteohub,2013-09-08 11:36:00,
2013-09-08 14:42:00,72.5,47.7,30.32,North,0,1.0,4.0,41,0.00,,,0.00,meteohub,2013-09-08 11:42:00,
2013-09-08 14:48:00,72.0,47.8,30.32,NE,45,3.0,8.0,42,0.00,,,0.00,meteohub,2013-09-08 11:48:00,
2013-09-08 14:54:00,72.0,47.8,30.32,West,270,0.0,8.0,42,0.00,,,0.00,meteohub,2013-09-08 11:54:00,
2013-09-08 15:00:00,72.0,47.1,30.32,East,90,2.0,7.0,41,0.00,,,0.00,meteohub,2013-09-08 12:00:00,
2013-09-08 15:06:00,72.0,46.4,30.32,NE,45,4.0,6.0,40,-99.99,,,0.00,meteohub,2013-09-08 12:06:00,
2013-09-08 15:12:00,72.7,45.7,30.32,NE,45,1.0,7.0,38,0.00,,,0.00,meteohub,2013-09-08 12:12:00,
2013-09-08 15:17:00,72.9,45.9,30.32,North,0,2.0,7.0,38,0.00,,,0.00,meteohub,2013-09-08 12:17:00,
2013-09-08 15:22:00,73.4,45.7,30.32,East,90,2.0,8.0,37,0.00,,,0.00,meteohub,2013-09-08 12:22:00,
2013-09-08 15:27:00,73.9,44.8,30.32,NE,45,2.0,9.0,35,0.00,,,0.00,meteohub,2013-09-08 12:27:00,
2013-09-08 15:33:00,74.5,45.1,30.32,North,0,3.0,9.0,35,0.00,,,0.00,meteohub,2013-09-08 12:33:00,
2013-09-08 15:39:00,74.8,44.8,30.32,East,90,4.0,6.0,34,0.00,,,0.00,meteohub,2013-09-08 12:39:00,
2013-09-08 15:45:00,74.7,44.6,30.32,North,0,0.0,6.0,34,0.00,,,0.00,meteohub,2013-09-08 12:45:00,
2013-09-08 15:51:00,75.6,45.3,30.32,NW,315,1.0,6.0,34,0.00,,,0.00,meteohub,2013-09-08 12:51:00,
2013-09-08 15:57:00,77.5,45.5,30.32,North,0,2.0,6.0,32,0.00,,,0.00,meteohub,2013-09-08 12:57:00,
2013-09-08 16:04:00,78.6,44.8,30.32,NW,315,3.0,8.0,30,0.00,,,0.00,meteohub,2013-09-08 13:04:00,
2013-09-08 16:10:00,78.8,44.1,30.32,North,0,4.0,8.0,29,0.00,,,0.00,meteohub,2013-09-08 13:10:00,
2013-09-08 16:16:00,79.5,42.8,30.32,North,0,3.0,8.0,27,-99.99,,,0.00,meteohub,2013-09-08 13:16:00,
2013-09-08 16:22:00,79.9,40.1,30.32,NW,315,2.0,8.0,24,-99.99,,,0.00,meteohub,2013-09-08 13:22:00,
2013-09-08 16:28:00,79.3,39.6,30.32,NE,45,2.0,6.0,24,-99.99,,,0.00,meteohub,2013-09-08 13:28:00,
2013-09-08 16:34:00,79.5,40.8,30.32,NE,45,1.0,6.0,25,0.00,,,0.00,meteohub,2013-09-08 13:34:00,
2013-09-08 16:40:00,79.5,40.8,30.32,NE,45,3.0,6.0,25,0.00,,,0.00,meteohub,2013-09-08 13:40:00,
2013-09-08 16:46:00,78.4,40.8,30.32,North,0,8.0,8.0,26,0.00,,,0.00,meteohub,2013-09-08 13:46:00,
2013-09-08 16:52:00,77.9,40.5,30.32,NE,45,4.0,8.0,26,0.00,,,0.00,meteohub,2013-09-08 13:52:00,
2013-09-08 16:57:00,77.4,39.9,30.32,NE,45,5.0,8.0,26,0.00,,,0.00,meteohub,2013-09-08 13:57:00,
2013-09-08 17:03:00,76.1,41.7,30.32,NE,45,4.0,8.0,29,0.00,,,0.00,meteohub,2013-09-08 14:03:00,
2013-09-08 17:09:00,75.4,42.8,30.32,North,0,1.0,6.0,31,0.00,,,0.00,meteohub,2013-09-08 14:09:00,
2013-09-08 17:15:00,75.0,43.3,30.32,North,0,1.0,7.0,32,0.00,,,0.00,meteohub,2013-09-08 14:15:00,
2013-09-08 17:21:00,74.5,43.7,30.32,NE,45,2.0,7.0,33,0.00,,,0.00,meteohub,2013-09-08 14:21:00,
2013-09-08 17:27:00,74.3,43.5,30.32,NE,45,0.0,9.0,33,0.00,,,0.00,meteohub,2013-09-08 14:27:00,
2013-09-08 17:33:00,74.1,44.1,30.32,East,90,6.0,9.0,34,-99.99,,,0.00,meteohub,2013-09-08 14:33:00,
2013-09-08 17:39:00,73.9,44.8,30.32,North,0,4.0,9.0,35,-99.99,,,0.00,meteohub,2013-09-08 14:39:00,
2013-09-08 17:45:00,73.8,45.3,30.32,North,0,3.0,7.0,36,-99.99,,,0.00,meteohub,2013-09-08 14:45:00,
2013-09-08 17:51:00,73.2,45.5,30.32,North,0,2.0,7.0,37,0.00,,,0.00,meteohub,2013-09-08 14:51:00,
2013-09-08 17:57:00,72.9,44.4,30.32,North,0,4.0,7.0,36,0.00,,,0.00,meteohub,2013-09-08 14:57:00,
2013-09-08 18:03:00,72.9,45.1,30.32,NE,45,2.0,9.0,37,0.00,,,0.00,meteohub,2013-09-08 15:03:00,
2013-09-08 18:09:00,72.7,45.1,30.32,North,0,5.0,9.0,37,0.00,,,0.00,meteohub,2013-09-08 15:09:00,
2013-09-08 18:15:00,72.1,44.6,30.32,NE,45,4.0,6.0,37,0.00,,,0.00,meteohub,2013-09-08 15:15:00,
2013-09-08 18:21:00,72.0,44.4,30.32,NE,45,5.0,8.0,37,0.00,,,0.00,meteohub,2013-09-08 15:21:00,
2013-09-08 18:27:00,71.8,45.0,30.32,East,90,3.0,8.0,38,0.00,,,0.00,meteohub,2013-09-08 15:27:00,
2013-09-08 18:34:00,71.6,44.8,30.32,NE,45,1.0,8.0,38,0.00,,,0.00,meteohub,2013-09-08 15:34:00,
2013-09-08 18:40:00,71.2,44.4,30.32,NE,45,4.0,8.0,38,0.00,,,0.00,meteohub,2013-09-08 15:40:00,
2013-09-08 18:46:00,71.1,44.2,30.32,North,0,1.0,6.0,38,0.00,,,0.00,meteohub,2013-09-08 15:46:00,
2013-09-08 18:52:00,71.1,44.2,30.32,East,90,3.0,6.0,38,0.00,,,0.00,meteohub,2013-09-08 15:52:00,
2013-09-08 18:58:00,70.7,44.1,30.32,North,0,3.0,6.0,38,0.00,,,0.00,meteohub,2013-09-08 15:58:00,
2013-09-08 19:04:00,70.7,44.1,30.32,East,90,3.0,6.0,38,0.00,,,0.00,meteohub,2013-09-08 16:04:00,
2013-09-08 19:10:00,70.5,44.6,30.35,NE,45,4.0,7.0,39,0.00,,,0.00,meteohub,2013-09-08 16:10:00,
2013-09-08 19:16:00,70.5,44.6,30.35,NE,45,2.0,7.0,39,0.00,,,0.00,meteohub,2013-09-08 16:16:00,
2013-09-08 19:22:00,70.3,44.4,30.35,NNW,338,2.0,7.0,39,0.00,,,0.00,meteohub,2013-09-08 16:22:00,
2013-09-08 19:27:00,70.2,45.0,30.32,NE,45,2.0,5.0,40,0.00,,,0.00,meteohub,2013-09-08 16:27:00,
2013-09-08 19:33:00,70.2,45.0,30.32,North,0,1.0,5.0,40,0.00,,,0.00,meteohub,2013-09-08 16:33:00,
2013-09-08 19:39:00,70.0,45.3,30.32,NE,45,3.0,5.0,41,0.00,,,0.00,meteohub,2013-09-08 16:39:00,
2013-09-08 19:45:00,69.8,45.1,30.35,North,0,2.0,6.0,41,0.00,,,0.00,meteohub,2013-09-08 16:45:00,
2013-09-08 19:51:00,69.6,45.7,30.35,NE,45,0.0,6.0,42,0.00,,,0.00,meteohub,2013-09-08 16:51:00,
2013-09-08 19:57:00,69.4,45.5,30.35,NNE,22,1.0,6.0,42,0.00,,,0.00,meteohub,2013-09-08 16:57:00,
2013-09-08 20:03:00,69.4,46.2,30.35,North,0,0.0,4.0,43,0.00,,,0.00,meteohub,2013-09-08 17:03:00,
2013-09-08 20:10:00,69.4,45.5,30.35,NE,45,0.0,4.0,42,0.00,,,0.00,meteohub,2013-09-08 17:10:00,
2013-09-08 20:16:00,69.3,45.3,30.35,NE,45,1.0,3.0,42,0.00,,,0.00,meteohub,2013-09-08 17:16:00,
2013-09-08 20:22:00,69.3,46.0,30.35,NE,45,1.0,3.0,43,0.00,,,0.00,meteohub,2013-09-08 17:22:00,
2013-09-08 20:28:00,69.1,45.9,30.35,NE,45,2.0,4.0,43,0.00,,,0.00,meteohub,2013-09-08 17:28:00,
2013-09-08 20:34:00,68.9,45.7,30.35,North,0,0.0,4.0,43,0.00,,,0.00,meteohub,2013-09-08 17:34:00,
2013-09-08 20:40:00,68.9,45.7,30.35,North,0,0.0,4.0,43,0.00,,,0.00,meteohub,2013-09-08 17:40:00,
2013-09-08 20:46:00,68.9,45.7,30.35,NE,45,1.0,5.0,43,0.00,,,0.00,meteohub,2013-09-08 17:46:00,
2013-09-08 20:52:00,68.7,45.5,30.35,NE,45,1.0,5.0,43,0.00,,,0.00,meteohub,2013-09-08 17:52:00,
2013-09-08 20:57:00,68.7,46.0,30.35,NE,45,2.0,5.0,44,0.00,,,0.00,meteohub,2013-09-08 17:57:00,
2013-09-08 21:03:00,68.7,46.8,30.35,NE,45,4.0,4.0,45,0.00,,,0.00,meteohub,2013-09-08 18:03:00,
2013-09-08 21:09:00,68.5,46.6,30.35,NE,45,1.0,4.0,45,-99.99,,,0.00,meteohub,2013-09-08 18:09:00,
2013-09-08 21:15:00,68.5,46.6,30.35,NE,45,1.0,4.0,45,-99.99,,,0.00,meteohub,2013-09-08 18:15:00,
2013-09-08 21:21:00,68.4,46.4,30.35,NE,45,2.0,4.0,45,-99.99,,,0.00,meteohub,2013-09-08 18:21:00,
2013-09-08 21:27:00,68.4,46.4,30.35,NE,45,1.0,4.0,45,0.00,,,0.00,meteohub,2013-09-08 18:27:00,
2013-09-08 21:33:00,68.4,46.9,30.35,NE,45,1.0,4.0,46,0.00,,,0.00,meteohub,2013-09-08 18:33:00,
2013-09-08 21:39:00,68.4,46.4,30.35,NE,45,1.0,4.0,45,0.00,,,0.00,meteohub,2013-09-08 18:39:00,
2013-09-08 21:45:00,68.4,46.4,30.35,NE,45,1.0,4.0,45,0.00,,,0.00,meteohub,2013-09-08 18:45:00,
2013-09-08 21:51:00,68.4,46.4,30.35,NNE,22,0.0,4.0,45,0.00,,,0.00,meteohub,2013-09-08 18:51:00,
2013-09-08 21:57:00,68.4,46.4,30.35,NE,45,2.0,4.0,45,0.00,,,0.00,meteohub,2013-09-08 18:57:00,
2013-09-08 22:03:00,68.4,46.4,30.35,NE,45,1.0,4.0,45,0.00,,,0.00,meteohub,2013-09-08 19:03:00,
2013-09-08 22:10:00,68.4,46.4,30.35,NE,45,1.0,4.0,45,0.00,,,0.00,meteohub,2013-09-08 19:10:00,
2013-09-08 22:16:00,68.4,46.4,30.35,North,0,0.0,3.0,45,0.00,,,0.00,meteohub,2013-09-08 19:16:00,
2013-09-08 22:22:00,68.4,46.4,30.35,NE,45,3.0,3.0,45,0.00,,,0.00,meteohub,2013-09-08 19:22:00,
2013-09-08 22:28:00,68.4,46.4,30.35,NE,45,1.0,3.0,45,0.00,,,0.00,meteohub,2013-09-08 19:28:00,
2013-09-08 22:34:00,68.4,46.4,30.35,NE,45,1.0,3.0,45,0.00,,,0.00,meteohub,2013-09-08 19:34:00,
2013-09-08 22:40:00,68.2,46.2,30.35,NE,45,0.0,3.0,45,0.00,,,0.00,meteohub,2013-09-08 19:40:00,
2013-09-08 22:46:00,68.2,46.2,30.35,NE,45,0.0,3.0,45,0.00,,,0.00,meteohub,2013-09-08 19:46:00,
2013-09-08 22:52:00,68.0,46.0,30.35,NE,45,0.0,3.0,45,0.00,,,0.00,meteohub,2013-09-08 19:52:00,
2013-09-08 22:57:00,68.0,46.0,30.35,NE,45,0.0,3.0,45,0.00,,,0.00,meteohub,2013-09-08 19:57:00,
2013-09-08 23:03:00,68.0,46.0,30.35,NE,45,1.0,3.0,45,0.00,,,0.00,meteohub,2013-09-08 20:03:00,
2013-09-08 23:09:00,67.8,46.4,30.35,NE,45,1.0,2.0,46,0.00,,,0.00,meteohub,2013-09-08 20:09:00,
2013-09-08 23:15:00,67.8,46.4,30.35,NE,45,0.0,2.0,46,0.00,,,0.00,meteohub,2013-09-08 20:15:00,
2013-09-08 23:21:00,67.8,46.4,30.35,NE,45,1.0,2.0,46,0.00,,,0.00,meteohub,2013-09-08 20:21:00,
2013-09-08 23:27:00,67.8,46.4,30.35,NE,45,0.0,2.0,46,0.00,,,0.00,meteohub,2013-09-08 20:27:00,
2013-09-08 23:33:00,67.8,46.4,30.35,NE,45,1.0,2.0,46,0.00,,,0.00,meteohub,2013-09-08 20:33:00,
2013-09-08 23:39:00,67.8,46.4,30.35,NE,45,0.0,2.0,46,0.00,,,0.00,meteohub,2013-09-08 20:39:00,
2013-09-08 23:45:00,67.8,46.4,30.35,NE,45,0.0,2.0,46,0.00,,,0.00,meteohub,2013-09-08 20:45:00,
2013-09-08 23:51:00,67.6,46.9,30.35,NE,45,0.0,1.0,47,0.00,,,0.00,meteohub,2013-09-08 20:51:00,
2013-09-08 23:57:00,67.6,46.9,30.35,NE,45,0.0,0.0,47,0.00,,,0.00,meteohub,2013-09-08 20:57:00,